#timestamp,LO_Frequency,Hit,StdDev 
1576393215.6,286046997.6,N
1576393235.4,286046997.4,N
1576393255.3,286046997.1,N
1576393275.1,286046998.6,N
1576393295.8,286047000.7,N
1576393315.7,286046998.5,N
1576393335.5,286046998.3,N
1576393355.4,286047001.0,N
1576393375.2,286047000.5,N
1576393395.0,286046999.8,N
1576393395.9,286046999.8,N
1576393415.8,286047000.5,N
1576393435.6,286047001.0,N
1576393455.5,286046998.6,N
1576393475.3,286047000.8,N
1576393495.1,286046998.4,N
1576393515.9,286046999.6,N
1576393535.7,286046996.6,N
1576393555.5,286046998.1,N
1576393575.4,286046999.2,N
1576393595.2,286046999.6,N
1576393615.1,286046999.0,N
1576393616.0,286046999.0,N
1576393635.8,286046998.8,N
1576393685.7,286046999.3,E
1576393695.6,286046997.1,N
1576393715.4,286046999.5,P
1576393735.3,286046996.6,N
1576393755.1,286046999.1,N
1576393756.0,286046999.1,N
1576393775.8,286046996.6,N
1576393795.7,286046997.3,N
1576393815.5,286046996.5,N
1576393835.4,286046995.4,Y
1576393855.2,286047000.9,P
1576393875.0,286047000.6,N
1576393875.9,286047000.6,N
1576393895.8,286046998.1,N
1576393915.6,286046996.6,N
1576393935.4,286046999.4,N
1576393955.3,286046998.2,N
1576393975.1,286046999.0,N
1576393995.9,286046998.8,N
1576394015.7,286047000.4,N
1576394035.5,286047001.2,N
1576394055.4,286047000.0,N
1576394075.2,286047001.5,N
1576394095.0,286047004.1,N
1576394095.9,286047004.1,N
1576394115.8,286047003.6,N
1576394135.6,286047002.2,N
1576394155.5,286047004.0,N
1576394175.3,286047004.0,N
1576394195.1,286047004.2,N
1576394215.9,286047003.1,N
1576394235.7,286047003.9,N
1576394255.5,286047001.5,N
1576394275.4,286046999.8,N
1576394295.2,286047001.6,N
1576394315.0,286047000.9,N
1576394316.0,286047000.9,N
1576394335.8,286047000.8,N
1576394355.6,286046998.8,N
1576394375.5,286046998.9,N
1576394395.3,286047001.2,N
1576394415.1,286046999.4,N
1576394435.9,286047000.5,N
1576394455.7,286047000.8,N
1576394475.6,286046998.7,N
1576394495.4,286046999.0,N
1576394515.2,286046998.4,N
1576394535.1,286046998.3,N
1576394536.0,286046998.3,N
1576394555.8,286047002.5,N
1576394575.6,286046998.2,N
1576394595.5,286047000.1,N
1576394615.3,286047002.3,N
1576394635.2,286047000.1,N
1576394655.9,286047000.8,N
1576394675.7,286047000.5,N
1576394695.6,286047000.5,N
1576394715.4,286047000.6,N
1576394735.2,286046998.5,N
1576394755.1,286047001.2,N
1576394756.0,286047001.2,N
1576394775.8,286047000.7,N
1576394795.7,286046998.1,N
1576394815.5,286047001.1,N
1576394835.3,286047000.3,N
1576394855.2,286047000.4,N
1576394875.9,286047001.0,N
1576394895.7,286047001.1,N
1576394915.6,286047000.5,N
1576394935.4,286047001.1,N
1576394955.2,286046998.1,N
1576394975.1,286047000.0,N
1576394976.0,286047000.0,N
1576394995.8,286047000.0,N
1576395015.7,286047000.0,N
1576395035.5,286046999.9,N
1576395055.3,286046999.0,N
1576395075.2,286046999.6,N
1576395095.0,286046999.3,N
1576395095.9,286046999.3,N
1576395115.8,286046999.4,N
1576395135.6,286046997.1,Y
1576395155.4,286046998.8,P
1576395175.3,286046999.4,N
1576395195.1,286046999.4,N
1576395215.8,286046999.1,N
1576395235.7,286046999.3,N
1576395255.5,286046999.5,N
1576395275.4,286047001.2,Y
1576395295.2,286046999.7,P
1576395315.0,286046999.9,N
1576395315.9,286046999.9,N
1576395335.8,286047002.1,Y
1576395355.6,286047000.2,P
1576395375.5,286047000.1,N
1576395395.3,286046999.7,N
1576395415.1,286047000.2,N
1576395435.9,286047000.5,N
1576395455.7,286047002.4,Y
1576395475.5,286047002.6,P
1576395495.4,286047001.5,N
1576395515.2,286047003.9,P
1576395535.1,286047003.7,N
1576395536.0,286047003.7,N
1576395555.8,286047003.8,N
1576395575.6,286047004.0,N
1576395595.5,286047004.4,Y
1576395615.3,286046998.5,P
1576395635.1,286046999.6,N
1576395655.9,286046999.4,N
1576395675.7,286046996.9,N
1576395695.6,286046997.3,N
1576395715.4,286046995.3,N
1576395735.2,286046996.0,N
1576395755.1,286046993.8,N
1576395756.0,286046993.8,N
1576395775.8,286046993.8,N
1576395795.6,286046996.3,N
1576395815.5,286046995.7,N
1576395835.3,286046996.3,N
1576395855.2,286046995.7,N
1576395875.9,286046995.7,N
1576395895.7,286046994.5,N
1576395915.6,286046994.0,N
1576395935.4,286046997.6,N
1576395955.2,286046997.6,N
1576395975.1,286046997.7,N
1576395976.0,286046997.7,N
1576395995.8,286046999.3,N
1576396015.7,286046999.1,N
1576396035.5,286046996.5,N
1576396055.3,286046996.9,N
1576396075.2,286046999.6,N
1576396095.9,286046998.8,N
1576396115.7,286046998.4,N
1576396135.6,286046998.2,N
1576396155.4,286046999.0,N
1576396175.2,286046996.5,N
1576396195.1,286046997.4,N
1576396196.0,286046997.4,N
1576396215.8,286046997.1,N
1576396235.7,286046996.9,N
1576396255.5,286046999.1,N
1576396275.3,286046996.7,N
1576396295.2,286046996.6,N
1576396315.0,286046998.8,N
1576396315.9,286046998.8,N
1576396335.7,286047000.8,N
1576396355.6,286047000.0,N
1576396375.4,286047000.5,N
1576396395.3,286047000.0,N
1576396415.1,286047001.1,N
1576396416.0,286047001.1,N
1576396435.8,286046998.7,N
1576396455.7,286046996.5,N
1576396475.5,286046998.8,N
1576396495.3,286046998.3,N
1576396515.2,286046998.4,N
1576396535.0,286047011.9,Y
1576396535.9,286047000.8,P
1576396555.8,286047002.5,N
1576396575.6,286047001.4,N
1576396595.4,286047002.2,N
1576396615.3,286047002.7,N
1576396635.1,286047000.0,N
1576396655.8,286047001.5,N
1576396675.7,286047001.6,N
1576396695.5,286047002.8,N
1576396715.4,286047002.1,N
1576396735.2,286047001.9,N
1576396755.0,286047000.8,N
1576396755.9,286047000.8,N
1576396775.8,286046999.0,N
1576396795.6,286046998.9,N
